Weather in Verkh-Askiz

Russia / Republic of Khakassia     53°09′38″N   90°11′00″E
temp.,
°C
wind,
m/s
gust,
m/s
humid.,
%
clouds,
%
prec.,
mm/h
press.,
hPa
HPBL,
m
9 may, sun
sun901:00+9wsw6135917 0.0 1016562
04:00+8wsw5116321 0.0 1015326
07:00+9wsw7137123 0.3 10141044
10:00+11w6146495 0.3 10141717
13:00+14wnw9155059 1.1 10132125
16:00+7e437595 1.3 1016665
19:00+4ene2695100 1.8 1019538
22:00+3ne258794 0.9 1020629
10 may, mon
mon1001:00+3n237298 0.9 102064
04:00+2n237443 0.0 102149
07:00+3nne24695 0.0 1023325
10:00+6ene45568 0.0 10231246
13:00+9ene674866 0.0 10211592
16:00+9ene67487 0.0 10201500
19:00+8ene795510 0.0 10201204
22:00+5ene511693 0.0 1019466
11 may, tue
tue1101:00+4ne511710 0.0 1017376
04:00+3ne41078100 0.0 1016302
07:00+4ne3875100 0.0 1015507
10:00+7ne3458100 0.0 1014726
13:00+11ene4447100 0.0 1013990
16:00+13ne443940 0.0 10111150
19:00+13ne334099 0.0 10111180
22:00+10ene0049100 0.0 101210
12 may, wed
wed1201:00+8sw2262100 0.0 101334
04:00+7w2269100 0.0 101346
07:00+8wnw2264100 0.0 1014115
10:00+12nne1248100 0.0 10131040
13:00+13ne5547100 0.5 10131635
16:00+14ne5543100 0.3 10121866
19:00+12ne565197 0.3 10141549
22:00+7ne237110 0.0 101792
13 may, thu
thu1301:00+5wnw118099 0.0 101811
04:00+4nw118198 0.0 101911
07:00+6nw116855 0.0 1019131
10:00+10nnw024573 0.0 10181135
13:00+13sse233879 0.0 10161975
16:00+13sw124364 0.0 10151598
19:00+13w335014 0.0 10141184
22:00+9w337351 0.2 101556